Wind_Speed
7 6 2 6 9 7 6 8 6 7 13 9 10 11 9 7 6 9 14 15 13 12 13 20 22 31 34 35 30 24 20 24 23 19 14 18 21 19 15 16 16 17 16 18
3 5 5 9 13 11 8 6 7 15 9 8 9 8 7 9 10 9 8 8 8 8 15 22 26 21 19 20 10 8 7 5 2 9 15 16 18 16 14 13 14 19 19 20
7 4 6 7 8 9 5 4 12 9 9 9 5 10 10 9 9 9 8 7 7 8 7 8 10 15 15 12 6 6 4 3 2 1 6 11 12 13 13 14 16 19 21 23
4 4 0 10 5 8 11 6 2 7 13 15 17 6 3 5 9 9 8 7 7 13 18 15 6 6 8 10 10 6 3 2 1 5 4 8 9 9 10 13 16 17 18 18
5 5 5 8 4 7 12 6 5 9 5 7 9 6 6 4 5 7 7 9 16 20 20 22 22 16 15 11 10 12 15 9 2 2 2 5 7 6 8 11 14 16 17 19
3 6 7 8 4 8 9 3 5 5 8 17 7 4 3 4 10 8 15 17 18 18 18 18 15 15 16 15 14 14 11 11 11 11 10 9 8 9 13 15 17 18 20 21
3 3 5 4 6 2 6 8 4 6 7 6 5 5 8 7 6 14 18 20 19 19 18 15 12 10 11 9 9 8 9 11 13 15 16 15 14 14 14 15 17 23 24 22
3 4 2 3 5 5 5 2 6 5 5 10 11 11 10 8 9 10 12 14 15 13 11 10 10 9 8 9 8 10 13 15 16 17 18 17 18 19 20 20 21 22 23 29
2 5 4 5 6 3 6 7 4 7 5 9 10 7 9 8 8 7 13 13 12 12 10 9 8 8 9 9 12 15 18 21 23 22 21 19 19 21 24 24 23 24 21 21
3 3 2 4 3 6 7 7 7 7 7 6 7 8 7 7 7 7 13 13 13 10 7 3 4 7 10 13 17 18 18 19 19 20 22 24 25 26 25 25 24 24 25 24
3 4 4 4 5 8 6 9 9 9 9 9 13 8 8 7 7 12 12 8 4 3 4 7 9 12 14 16 15 17 18 22 24 25 25 26 25 24 27 28 25 24 24 27
4 7 4 5 6 7 7 6 9 10 11 5 9 9 7 8 15 13 11 9 6 5 5 7 9 11 13 15 18 21 24 26 27 28 28 28 27 30 28 27 28 30 34 35
5 5 6 1 3 4 8 6 6 7 9 10 10 11 11 6 7 5 5 6 5 3 4 8 10 12 12 11 12 16 20 22 25 27 29 29 29 27 24 28 30 32 32 32
2 3 3 6 4 6 7 7 12 14 14 10 13 14 18 15 13 11 7 5 4 4 5 4 8 16 20 20 22 22 23 24 26 26 27 27 26 26 27 26 25 28 29 30
7 7 3 2 7 8 10 8 10 10 9 11 18 15 14 12 10 8 3 2 1 1 6 12 14 18 19 18 18 20 21 23 25 25 26 28 28 29 28 27 27 28 32 32
7 7 7 8 6 6 7 8 12 7 6 7 11 11 11 9 5 1 0 6 2 8 12 14 17 21 20 19 17 16 17 19 21 24 25 26 26 26 27 29 28 28 27 29
8 5 5 5 6 6 8 7 7 7 7 9 10 9 5 2 3 2 1 6 10 12 14 15 18 18 17 11 9 11 21 28 28 27 27 27 28 29 30 30 29 29 29 28
9 7 9 11 8 8 7 7 11 11 6 6 4 3 3 3 3 4 10 11 12 15 15 14 13 14 8 6 16 24 30 30 28 28 28 27 27 28 31 32 32 31 30 28
14 13 14 14 15 11 9 8 8 6 4 3 2 2 2 3 6 10 11 12 13 13 18 10 8 6 7 15 22 27 30 28 27 27 26 28 29 28 28 29 30 29 29 27
7 11 17 12 13 14 10 8 6 3 1 0 3 1 5 9 13 10 12 15 15 16 7 4 1 7 15 22 27 28 28 24 24 26 27 27 29 30 29 31 31 30 30 28
7 5 9 10 11 10 10 9 8 6 4 4 3 6 7 4 6 8 11 8 15 2 3 5 7 15 20 24 26 26 23 24 24 26 27 28 29 29 30 30 29 27 26 24
9 3 7 10 10 9 7 6 6 5 0 1 3 2 5 7 9 11 11 10 3 9 9 8 14 19 22 22 21 21 23 24 24 24 25 26 27 27 23 25 22 21 21 20
6 5 6 6 4 2 1 3 5 1 2 2 4 4 3 4 6 8 6 4 8 11 8 11 16 21 24 20 19 22 21 21 22 22 23 23 25 24 20 18 14 14 16 18
5 3 1 2 2 4 5 10 2 2 4 6 6 5 4 2 8 9 4 9 9 8 7 11 16 21 24 24 20 21 20 21 21 21 21 22 22 22 22 18 13 12 11 7
2 3 5 7 5 2 5 3 1 3 4 5 6 3 3 3 3 4 8 11 10 6 6 9 15 23 28 23 20 23 22 23 22 21 21 22 22 22 22 23 24 19 16 17
5 7 6 8 8 10 7 5 3 2 4 5 6 8 8 6 2 6 12 13 9 7 5 7 10 18 25 27 29 25 23 23 23 23 23 23 22 22 24 25 26 25 26 27
15 14 11 9 7 6 5 6 5 5 4 6 8 9 9 8 7 13 16 14 12 11 8 6 9 12 15 23 28 26 25 24 25 25 24 25 25 25 25 27 27 28 27 27
Wind_Direction
209 218 218 259 225 183 143 167 129 178 153 198 178 164 171 162 145 123 124 140 148 155 175 193 202 213 222 231 239 246 232 223 223 227 234 231 229 225 232 237 239 249 247 245
258 298 11 300 210 181 167 176 140 154 174 193 182 142 152 149 118 113 138 137 147 153 153 160 161 162 178 187 161 143 139 143 174 228 233 225 226 229 234 245 252 236 245 252
258 37 8 332 231 176 175 168 151 160 204 145 162 161 161 156 140 141 136 138 147 159 143 139 133 147 145 148 145 138 113 114 174 195 241 239 235 249 256 259 255 246 249 259
218 75 182 243 299 169 106 19 135 129 141 167 173 154 102 147 143 134 129 118 94 95 83 69 124 159 138 132 120 111 98 174 79 339 296 250 236 239 254 251 248 254 263 263
148 160 274 312 280 151 118 356 356 109 127 155 110 76 14 24 83 115 112 116 118 109 95 81 70 89 96 97 84 78 69 61 35 308 321 264 285 285 265 270 267 263 263 264
109 153 198 241 250 136 100 51 309 134 128 135 125 109 226 136 111 98 95 115 110 102 95 83 77 69 63 62 56 52 39 26 13 6 15 9 332 302 284 272 271 271 271 267
128 151 288 284 318 261 102 212 195 130 137 134 138 181 162 156 116 115 108 103 107 95 89 88 77 61 60 46 46 28 8 353 344 342 341 338 333 326 326 320 304 278 267 267
100 101 212 348 359 115 196 71 135 123 121 107 116 122 136 137 138 132 127 119 116 105 90 71 62 57 51 32 8 351 343 336 333 331 328 324 324 320 317 314 311 301 296 277
141 181 248 324 97 104 122 106 87 101 87 125 132 145 152 157 147 142 131 118 116 109 97 75 51 20 7 355 343 334 327 322 319 319 319 319 317 315 311 306 299 295 286 279
77 314 19 356 85 97 98 100 108 104 106 97 111 103 93 98 97 101 110 105 107 100 87 55 347 324 317 316 314 312 308 303 301 302 303 303 305 306 305 303 295 287 282 275
81 305 335 349 145 133 109 107 108 109 114 118 114 116 124 117 121 130 132 138 150 189 231 271 284 293 299 297 287 278 279 286 290 292 293 295 295 294 296 294 292 287 281 281
202 237 167 204 198 138 128 146 144 136 118 182 152 152 151 152 164 168 184 198 204 218 245 280 298 297 296 294 290 285 280 283 280 279 279 280 279 285 287 285 287 289 288 287
168 207 162 127 261 144 151 160 152 155 141 183 191 161 155 147 168 163 128 118 94 53 335 317 313 310 313 316 318 321 316 312 305 295 284 275 275 273 273 280 277 278 284 281
79 71 77 175 165 112 110 104 99 83 98 102 95 89 102 97 91 89 84 75 52 359 334 325 316 310 313 312 312 310 310 309 303 294 289 283 275 272 271 273 276 282 275 278
279 238 226 207 143 128 122 118 87 98 103 92 100 110 112 110 112 120 108 321 204 311 307 309 309 316 326 321 314 311 311 307 304 297 287 282 277 275 270 266 266 268 274 276
205 135 152 172 175 157 125 93 113 112 112 117 116 115 115 118 134 176 267 159 291 305 317 315 312 318 319 317 313 308 309 313 311 303 295 287 280 273 268 266 265 263 260 259
137 141 113 87 111 107 113 120 125 131 127 126 137 132 122 104 73 104 225 304 304 311 314 314 311 313 312 306 299 320 324 319 311 299 288 282 279 275 271 267 261 260 260 258
137 134 130 128 121 108 97 100 107 110 117 132 129 107 52 124 174 281 307 304 295 306 307 312 309 312 299 321 329 325 322 315 304 296 291 287 283 282 281 276 266 259 257 256
116 124 127 125 126 122 120 117 113 112 115 131 142 178 170 236 251 275 292 293 294 299 303 308 308 291 321 329 330 324 319 310 302 298 293 292 288 281 277 274 274 273 275 265
87 105 108 112 119 125 130 129 127 118 35 64 126 284 297 298 315 294 298 289 291 300 290 312 140 342 343 337 333 326 322 308 302 298 294 290 286 283 280 276 269 266 265 268
330 129 153 137 130 129 118 113 100 92 95 77 17 331 313 324 319 321 315 304 317 288 152 148 9 355 346 338 333 332 316 309 306 302 299 296 292 287 281 275 268 265 263 258
281 193 122 116 106 111 106 97 130 147 203 284 350 329 322 325 330 336 329 310 321 148 131 50 17 3 355 349 341 328 323 318 312 312 311 309 305 297 295 299 265 258 261 262
220 175 103 93 117 135 324 335 192 116 82 264 271 281 318 338 346 341 330 16 134 140 93 43 19 9 11 359 346 341 334 330 331 329 327 331 329 328 313 324 306 283 275 269
205 130 144 238 290 320 315 327 186 32 341 322 324 293 264 314 335 353 358 133 152 127 73 38 21 18 21 14 358 356 351 350 350 347 350 352 352 354 1 357 332 316 309 291
297 322 308 340 347 352 90 66 59 36 356 25 41 49 304 291 337 32 122 137 130 96 79 42 29 32 31 20 13 11 4 5 8 9 11 10 10 18 27 34 45 56 62 68
295 312 358 88 96 95 85 56 40 9 352 355 359 2 348 308 311 146 134 132 104 81 68 34 22 30 31 28 26 14 14 16 20 24 27 28 26 33 43 51 54 59 69 78
89 92 91 84 72 56 53 58 66 48 40 5 332 326 314 321 161 135 133 118 91 78 62 48 36 28 27 33 33 32 28 27 34 36 38 44 47 48 51 56 62 69 74 83
Height
780 774 769 773 770 768 784 790 805 802 801 796 785 781 778 773 771 775 779 780 782 786 790 792 794 793 794 795 795 795 792 797 801 800 798 800 803 804 804 805 806 806 807 806
769 763 770 773 757 760 764 772 779 785 792 772 769 770 774 773 772 777 777 778 780 782 786 790 790 792 792 794 795 796 797 795 795 796 798 799 799 801 802 801 804 806 804 802
797 776 773 791 763 760 758 754 766 792 775 769 775 771 773 774 773 776 776 776 775 777 780 781 783 787 790 794 793 794 794 795 796 796 797 796 795 795 797 798 800 801 801 799
799 785 814 768 738 733 755 757 752 759 757 759 761 763 766 765 770 774 774 775 776 778 780 781 782 784 787 788 789 790 790 791 793 794 793 792 792 792 794 795 796 797 795 794
801 813 787 756 741 747 755 774 754 756 755 757 762 768 777 769 768 772 773 775 777 778 779 780 783 785 786 787 788 789 790 791 791 790 791 790 791 793 793 794 793 794 792 791
802 799 807 767 734 726 735 797 756 752 756 758 763 796 790 773 771 774 776 777 779 780 782 783 786 787 789 791 793 792 793 793 793 792 792 791 791 787 791 790 790 789 787 786
791 790 779 745 739 728 779 791 752 752 754 756 767 768 767 769 771 773 775 778 781 782 784 786 788 789 791 793 793 794 794 793 793 792 791 792 792 790 789 787 787 785 784 783
786 792 789 736 736 756 761 751 750 750 750 756 758 762 765 768 771 772 774 777 780 782 785 786 788 789 792 793 794 794 793 792 791 791 791 790 789 788 787 785 783 781 779 777
769 780 757 746 745 743 743 748 749 750 752 752 759 762 764 768 770 772 775 777 780 782 785 787 788 789 791 791 792 791 790 789 788 787 786 786 784 783 782 781 780 777 775 772
770 757 754 752 745 743 742 747 748 750 754 756 761 764 769 770 773 776 778 780 782 784 786 787 788 789 789 789 789 788 788 787 785 784 783 782 780 778 776 774 772 771 769 767
769 760 755 745 746 746 746 745 748 750 757 764 764 768 770 772 776 778 779 780 781 782 783 784 784 785 785 785 785 784 784 782 781 780 778 776 774 773 770 768 768 766 763 761
773 756 756 754 744 741 747 749 749 749 747 768 766 766 767 768 772 774 776 777 778 780 781 781 782 782 783 782 782 780 777 776 774 773 770 769 767 764 764 762 760 758 756 753
752 746 742 739 742 739 745 750 749 749 747 761 762 759 761 765 771 773 775 776 776 777 779 779 779 779 779 778 777 775 774 771 769 767 764 762 759 757 754 751 750 748 745 743
739 740 745 744 747 742 743 747 750 748 751 759 760 761 762 764 769 771 775 776 777 778 777 777 777 776 775 774 772 770 768 765 763 760 758 755 753 750 747 744 740 736 735 733
742 742 745 744 744 743 744 746 750 755 757 762 763 768 768 768 770 775 776 776 776 776 776 775 773 771 769 768 766 764 762 759 756 753 751 747 744 741 738 734 731 727 725 722
741 739 742 746 746 747 746 750 754 761 761 763 765 768 767 769 771 773 773 774 774 773 771 769 767 765 763 762 760 758 756 753 751 748 744 740 736 731 727 723 719 716 713 711
743 746 745 749 750 750 750 751 753 757 760 763 764 765 766 768 767 771 771 770 768 767 766 764 762 761 758 757 755 754 751 747 743 740 734 730 725 721 716 712 707 703 700 700
732 736 740 745 750 752 754 755 757 758 761 763 764 764 764 765 768 767 766 765 763 763 762 760 759 756 755 754 752 749 745 740 735 730 724 719 715 711 706 701 695 691 688 688
738 740 743 746 749 752 756 758 760 760 761 761 762 763 764 763 762 761 761 761 760 758 756 756 754 753 752 750 747 742 737 732 726 720 716 711 705 701 696 692 687 683 680 678
742 747 747 749 749 751 753 755 756 758 759 759 760 760 759 759 759 758 758 757 755 754 753 752 751 750 748 745 741 736 731 725 720 714 708 703 697 691 686 681 677 674 672 671
753 751 750 751 752 752 752 753 755 756 758 758 758 759 758 757 757 756 754 753 751 750 750 750 750 747 744 740 735 730 725 720 714 707 701 694 687 681 674 668 664 662 661 660
757 754 752 751 752 753 753 753 754 755 756 757 757 756 756 755 754 753 752 750 748 748 749 749 747 745 741 736 731 726 721 715 709 703 696 688 680 671 665 658 653 654 654 654
755 755 750 750 751 751 751 750 750 751 752 753 753 753 753 752 752 750 749 749 748 748 748 748 746 743 738 733 727 722 716 711 706 699 692 685 677 669 661 656 652 650 649 648
752 749 749 749 748 748 748 747 747 749 751 752 751 750 750 750 750 749 747 747 748 748 748 747 745 741 736 730 725 720 716 710 703 696 691 684 677 670 662 656 652 649 647 645
746 745 746 746 747 747 747 748 748 749 750 750 750 749 749 748 748 747 747 748 749 749 748 748 745 741 735 731 727 720 715 710 704 698 692 686 680 674 669 662 658 654 651 649
746 747 747 747 750 750 749 749 750 750 750 748 748 748 748 748 747 746 747 749 750 750 749 748 745 742 739 734 726 722 717 713 706 701 696 691 686 681 676 671 667 665 662 660
749 750 750 751 750 749 748 748 748 749 749 748 748 747 747 746 746 746 747 748 750 750 749 748 746 744 741 736 731 726 722 717 712 707 702 697 693 689 685 682 679 676 674 672